Regional Weather Roundup
Issued by NWS Goodland, KS

Home | Current Version | Previous Version | Graphics & Text | Print | Product List | Glossary On
Versions: 1 2 3 4 5 6 7 8 9 10 11 12 13 14 15 16 17 18 19 20 21 22 23 24 25 26 27 28 29 30 31 32 33 34 35 36 37 38 39 40 41 42 43 44 45 46 47 48 49 50
000
ASUS43 KGLD 290259
RWRGLD

GOODLAND FORECAST AREA HOURLY WEATHER ROUNDUP
NATIONAL WEATHER SERVICE GOODLAND KS
900 PM MDT SUN AUG 28 2016

...OFFICIAL OBSERVATIONS...

CITY           SKY/WX    TMP DP  RH WIND       PRES   REMARKS
GOODLAND KS    CLOUDY    67  59  75 SE3       30.13R
HILL CITY KS   PTCLDY    74  65  73 S5        30.11R
IMPERIAL NEB   CLEAR     67  60  78 SE9       30.13R
MCCOOK NEB     PTCLDY    72  62  71 E7        30.11R
AKRON CO       CLOUDY    70  47  43 NW16G25   30.23R
BURLINGTON CO  CLEAR     70  56  61 S7        30.17R
LIMON CO       CLOUDY    63  48  58 N7        30.24R
$$

...UNOFFICIAL OBSERVATIONS...

CITY           SKY/WX    TMP DP  RH WIND       PRES   REMARKS
COLBY KS       CLEAR     73  64  73 SE9       30.14R
LENORA KS        N/A     75  32  20 MISG        N/A
NORTON KS      CLEAR     73  59  60 E5        30.10R
SHARON SPRINGS   N/A     73  65  76 S12G20      N/A
TRENTON NEB      N/A     70  32  24 MISG        N/A
KIT CARSON CO    N/A     74  59  58 MISG        N/A
YUMA CO          N/A     68  58  71 CALM        N/A
$$




USA.gov is the U.S. government's official web portal to all federal, state and local government web resources and services.